Etusivu
METAR-TAF:

METAR-TAF

Lentoasemat :

Tambacounda, Senegal

Leveyspiiri: 13-46N, Pituuspiiri: 013-41W, korkeus merenpinnasta: 49 m

Tämänhetkinen sää

Tämä raportti tehtiin 15 minuuttia sitten, kello 13.00 UTC
Tuuli 8 kn etelästä
Lämpötila 32°C
Kosteus 71%
Ilmanpaine 1012 hPa
Näkyvyys 10 km tai enemmän
Hajonneita pilviä 1500 ft:n korkeudessa
Hajanaisia pilviä 13000 ft:n korkeudessa

METAR: GOTT 251300Z 18008KT 9999 BKN015 SCT130 32/26 Q1012

Aika: 13:15 (13:15 UTC)


TAF: puuttuu

Säähavainnot ja -ennusteet yli 4000 lentoasemalta (METAR- ja TAF-raportit).

Käytössä olevat sääasemat on merkitty karttaan keltaisilla ja punaisilla pisteillä.

Aseta hiiri pisteen päälle nähdäksesi sääaseman nimen.

Klikkaa sitten nähdäksesi säähavainnot ja -ennusteet.

Kartan vaihtaminen: klikkaa mustalla rastilla varustettuja vihreitä pisteitä, niin voit zoomata sisään; viivalla varustettua vihreää pistettä, niin voit zoomata ulos tai vihreitä nuolia, niin pääset viereisille kartoille.


METAR-TAF: